BAW491 LXGB-EGLL

Flight info

Callsign BAW491
Flight time 1h 11m
Altitude 36000
Route PIMOS N869 BLN N865 VTB N867 OSTIX/N0449F380 N867 NENEM DCT PEXOD DCT YURZI UL14 TEPRA UN867 MOKOR/N0435F340 UP87 ROXOG
Aircraft A320/M-SDE3FGHIRWY/LB1

Departure

Time 2026-05-04 17:31
Airport Gibraltar Airport (LXGB)

Arrival

Time 2026-05-04 18:43
Airport London Heathrow Airport (EGLL)
Time Latitude Longitude Altitude Speed Heading
2026-05-04 16:12 36.15323 -5.34527 17 ft 0 kts 356°
2026-05-04 17:18 36.15309 -5.34578 17 ft 0 kts 357°
2026-05-04 17:20 36.15281 -5.34577 17 ft 3 kts 357°
2026-05-04 17:20 36.15263 -5.34576 19 ft 3 kts
2026-05-04 17:21 36.15232 -5.34596 22 ft 2 kts 82°
2026-05-04 17:21 36.15232 -5.34601 22 ft 0 kts 88°
2026-05-04 17:24 36.15232 -5.34583 19 ft 4 kts 88°
2026-05-04 17:25 36.15233 -5.34554 17 ft 4 kts 88°
2026-05-04 17:25 36.15234 -5.34521 17 ft 1 kts 88°
2026-05-04 17:26 36.15238 -5.34404 15 ft 12 kts 87°
2026-05-04 17:26 36.15243 -5.34269 15 ft 1 kts 88°
2026-05-04 17:27 36.15244 -5.34256 15 ft 0 kts 87°
2026-05-04 17:27 36.15235 -5.34236 16 ft 3 kts 139°
2026-05-04 17:28 36.15170 -5.34221 18 ft 12 kts 167°
2026-05-04 17:29 36.15153 -5.34076 18 ft 9 kts 270°
2026-05-04 17:29 36.15152 -5.34095 18 ft 0 kts 266°
2026-05-04 17:31 36.15118 -5.35122 29 ft 130 kts 268°
2026-05-04 17:31 36.14467 -5.38456 1612 ft 166 kts 217°
2026-05-04 17:32 36.11799 -5.38764 2130 ft 219 kts 181°
2026-05-04 17:33 36.07439 -5.36299 3843 ft 261 kts 116°
2026-05-04 17:33 36.07015 -5.34119 4635 ft 263 kts 95°
2026-05-04 17:34 36.06019 -5.27349 6965 ft 276 kts 103°
2026-05-04 17:34 36.05642 -5.24997 7723 ft 282 kts 103°
2026-05-04 17:35 36.06657 -5.17539 9735 ft 312 kts 70°
2026-05-04 17:35 36.08240 -5.12264 10495 ft 349 kts 70°
2026-05-04 17:35 36.09092 -5.09415 10855 ft 364 kts 70°
2026-05-04 17:36 36.09972 -5.06455 11464 ft 370 kts 70°
2026-05-04 17:36 36.10866 -5.03446 12125 ft 375 kts 70°
2026-05-04 17:36 36.11769 -5.00399 12771 ft 380 kts 70°
2026-05-04 17:36 36.12683 -4.97315 13413 ft 384 kts 70°
2026-05-04 17:37 36.13619 -4.94207 14019 ft 388 kts 66°
2026-05-04 17:37 36.14900 -4.91246 14569 ft 392 kts 54°
2026-05-04 17:37 36.16626 -4.88634 15120 ft 393 kts 42°
2026-05-04 17:37 36.18728 -4.86472 15684 ft 393 kts 30°
2026-05-04 17:38 36.21044 -4.84654 16255 ft 396 kts 28°
2026-05-04 17:38 36.23385 -4.82830 16810 ft 400 kts 28°
2026-05-04 17:38 36.25716 -4.81012 17374 ft 403 kts 28°
2026-05-04 17:38 36.28098 -4.79149 17925 ft 407 kts 28°
2026-05-04 17:39 36.32927 -4.75364 18976 ft 414 kts 28°
2026-05-04 17:39 36.35369 -4.73446 19489 ft 417 kts 28°
2026-05-04 17:39 36.37830 -4.71508 20002 ft 421 kts 28°
2026-05-04 17:40 36.40309 -4.69553 20508 ft 424 kts 28°
2026-05-04 17:40 36.42811 -4.67581 20990 ft 427 kts 28°
2026-05-04 17:40 36.45330 -4.65600 21464 ft 430 kts 28°
2026-05-04 17:40 36.47864 -4.63604 21940 ft 433 kts 28°
2026-05-04 17:41 36.50414 -4.61591 22410 ft 436 kts 28°
2026-05-04 17:41 36.52950 -4.59587 22869 ft 439 kts 28°
2026-05-04 17:41 36.55536 -4.57544 23329 ft 442 kts 28°
2026-05-04 17:41 36.58139 -4.55487 23749 ft 445 kts 28°
2026-05-04 17:42 36.67688 -4.47920 25076 ft 455 kts 27°
2026-05-04 17:42 36.78522 -4.39297 26500 ft 468 kts 27°
2026-05-04 17:42 36.90183 -4.32226 27808 ft 470 kts 17°
2026-05-04 17:42 37.02304 -4.25560 29141 ft 481 kts 17°
2026-05-04 17:43 37.14692 -4.18751 30553 ft 489 kts 17°
2026-05-04 17:43 37.27079 -4.11900 32284 ft 485 kts 17°
2026-05-04 17:43 37.39388 -4.05066 33941 ft 482 kts 16°
2026-05-04 17:43 37.51639 -3.98254 35330 ft 481 kts 16°
2026-05-04 17:44 37.63747 -3.91503 35942 ft 490 kts 16°
2026-05-04 17:44 37.76202 -3.84532 35930 ft 487 kts 17°
2026-05-04 17:44 37.88544 -3.77576 36095 ft 484 kts 16°
2026-05-04 17:44 38.00924 -3.70612 35956 ft 489 kts 17°
2026-05-04 17:45 38.13354 -3.63679 35824 ft 486 kts 11°
2026-05-04 17:45 38.26157 -3.61457 35992 ft 462 kts 355°
2026-05-04 17:45 38.51924 -3.58942 35936 ft 469 kts 356°
2026-05-04 17:46 38.77716 -3.56410 36037 ft 463 kts 356°
2026-05-04 17:46 39.03392 -3.53897 35991 ft 465 kts 356°
2026-05-04 17:47 39.29222 -3.51326 35987 ft 465 kts 357°
2026-05-04 17:47 39.55021 -3.48727 35978 ft 465 kts 358°
2026-05-04 17:48 39.80795 -3.46046 35981 ft 467 kts
2026-05-04 17:48 40.06588 -3.40683 35973 ft 468 kts
2026-05-04 17:49 40.32387 -3.35506 35960 ft 469 kts
2026-05-04 17:49 40.58019 -3.30291 35956 ft 470 kts
2026-05-04 17:50 40.83936 -3.24986 35950 ft 472 kts
2026-05-04 17:50 41.09844 -3.19196 35957 ft 472 kts
2026-05-04 17:51 41.35772 -3.13363 35977 ft 474 kts
2026-05-04 17:51 41.61795 -3.07438 35986 ft 474 kts
2026-05-04 17:52 41.87828 -3.01480 35993 ft 475 kts
2026-05-04 17:52 42.13696 -2.95506 35999 ft 475 kts
2026-05-04 17:53 42.39733 -2.89389 36010 ft 474 kts
2026-05-04 17:53 42.52757 -2.88489 36015 ft 467 kts 353°
2026-05-04 17:53 42.65742 -2.89149 36022 ft 468 kts 354°
2026-05-04 17:54 42.91800 -2.90515 36028 ft 469 kts 354°
2026-05-04 17:54 43.13517 -2.91653 36022 ft 471 kts 354°
2026-05-04 17:55 43.39361 -2.95402 36027 ft 466 kts 343°
2026-05-04 17:55 43.64721 -3.03261 36029 ft 467 kts 344°
2026-05-04 17:56 43.86911 -3.09762 36025 ft 469 kts 346°
2026-05-04 17:56 43.93307 -3.11599 36026 ft 470 kts 345°
2026-05-04 17:57 43.99708 -3.13445 36024 ft 470 kts 345°
2026-05-04 17:57 44.06172 -3.14806 36024 ft 473 kts 357°
2026-05-04 17:58 44.12725 -3.14286 36021 ft 475 kts
2026-05-04 17:58 44.19317 -3.13597 36021 ft 475 kts
2026-05-04 17:59 44.25918 -3.12901 36016 ft 476 kts
2026-05-04 18:00 44.35821 -3.11867 36016 ft 476 kts
2026-05-04 18:00 44.42418 -3.11187 36019 ft 476 kts
2026-05-04 18:01 44.49024 -3.10496 36018 ft 476 kts
2026-05-04 18:01 44.56824 -3.09675 36020 ft 476 kts
2026-05-04 18:02 44.96421 -3.05501 36014 ft 475 kts
2026-05-04 18:02 45.22602 -3.02695 36013 ft 475 kts
2026-05-04 18:03 45.35539 -2.99430 35993 ft 474 kts 25°
2026-05-04 18:03 45.48187 -2.94713 36004 ft 476 kts 10°
2026-05-04 18:03 45.61103 -2.90971 35871 ft 476 kts 11°
2026-05-04 18:03 45.74011 -2.87410 35998 ft 469 kts 11°
2026-05-04 18:04 45.99844 -2.80243 35919 ft 477 kts 11°
2026-05-04 18:04 46.25682 -2.73015 36050 ft 468 kts 11°
2026-05-04 18:05 46.38563 -2.69372 36045 ft 473 kts 11°
2026-05-04 18:05 46.51492 -2.65705 35872 ft 476 kts 11°
2026-05-04 18:05 46.64358 -2.62037 35927 ft 469 kts 11°
2026-05-04 18:05 46.77161 -2.58375 36077 ft 465 kts 11°
2026-05-04 18:06 47.02618 -2.51038 35857 ft 474 kts 12°
2026-05-04 18:06 47.15481 -2.47283 35973 ft 468 kts 12°
2026-05-04 18:06 47.28319 -2.43537 36092 ft 468 kts 12°
2026-05-04 18:07 47.33858 -2.41921 35936 ft 471 kts 12°
2026-05-04 18:07 47.37085 -2.40977 35988 ft 475 kts 12°
2026-05-04 18:07 47.43561 -2.39072 35997 ft 474 kts 12°
2026-05-04 18:08 47.49984 -2.37168 35998 ft 473 kts 12°
2026-05-04 18:08 47.58422 -2.34670 35994 ft 473 kts 12°
2026-05-04 18:09 47.84189 -2.26998 35995 ft 472 kts 12°
2026-05-04 18:10 47.97052 -2.23137 35997 ft 471 kts 12°
2026-05-04 18:10 48.09904 -2.19269 35995 ft 471 kts 12°
2026-05-04 18:11 48.22655 -2.15416 35996 ft 471 kts 12°
2026-05-04 18:11 48.35499 -2.11484 35995 ft 471 kts 12°
2026-05-04 18:12 48.49067 -2.07324 35980 ft 471 kts 12°
2026-05-04 18:12 48.58709 -2.04355 36001 ft 471 kts 12°
2026-05-04 18:13 48.65131 -2.02387 35980 ft 471 kts 12°
2026-05-04 18:14 48.86072 -1.95895 35989 ft 471 kts 12°
2026-05-04 18:14 49.11583 -1.87883 36006 ft 471 kts 12°
2026-05-04 18:15 49.45178 -1.77216 36015 ft 469 kts 12°
2026-05-04 18:16 49.51562 -1.75174 36017 ft 468 kts 12°
2026-05-04 18:16 49.57940 -1.73138 36019 ft 467 kts 12°
2026-05-04 18:17 49.64404 -1.72160 35894 ft 467 kts
2026-05-04 18:17 49.67630 -1.71894 35646 ft 465 kts
2026-05-04 18:17 49.74104 -1.71356 35158 ft 465 kts
2026-05-04 18:18 49.77292 -1.71092 34917 ft 465 kts
2026-05-04 18:18 49.80527 -1.70817 34680 ft 465 kts
2026-05-04 18:18 49.83760 -1.70540 34449 ft 466 kts
2026-05-04 18:18 49.86993 -1.70262 34211 ft 466 kts
2026-05-04 18:19 49.93472 -1.69719 33670 ft 466 kts
2026-05-04 18:19 49.96700 -1.69447 33129 ft 463 kts
2026-05-04 18:19 49.99893 -1.68945 32583 ft 459 kts 12°
2026-05-04 18:20 50.02964 -1.67736 32059 ft 454 kts 19°
2026-05-04 18:20 50.05965 -1.66265 31526 ft 451 kts 19°
2026-05-04 18:20 50.08952 -1.64809 30992 ft 448 kts 19°
2026-05-04 18:20 50.11923 -1.63373 30459 ft 446 kts 19°
2026-05-04 18:21 50.14880 -1.61947 29902 ft 444 kts 19°
2026-05-04 18:21 50.17785 -1.60546 29352 ft 441 kts 19°
2026-05-04 18:21 50.20694 -1.59140 28844 ft 436 kts 19°
2026-05-04 18:21 50.23582 -1.57737 28322 ft 432 kts 19°
2026-05-04 18:22 50.26438 -1.56339 27805 ft 428 kts 19°
2026-05-04 18:22 50.29272 -1.54952 27317 ft 425 kts 19°
2026-05-04 18:22 50.32077 -1.53585 26811 ft 421 kts 19°
2026-05-04 18:22 50.34865 -1.52227 26353 ft 418 kts 19°
2026-05-04 18:23 50.37624 -1.50876 25886 ft 414 kts 19°
2026-05-04 18:23 50.40366 -1.49532 25445 ft 411 kts 19°
2026-05-04 18:23 50.43084 -1.48194 24996 ft 408 kts 19°
2026-05-04 18:23 50.45781 -1.46860 24566 ft 405 kts 19°
2026-05-04 18:24 50.48459 -1.45533 24126 ft 403 kts 19°
2026-05-04 18:24 50.51084 -1.44236 23686 ft 400 kts 19°
2026-05-04 18:24 50.53708 -1.42825 23188 ft 397 kts 25°
2026-05-04 18:24 50.56150 -1.40877 22743 ft 390 kts 31°
2026-05-04 18:25 50.58525 -1.38834 22285 ft 387 kts 30°
2026-05-04 18:25 50.60868 -1.36823 21838 ft 383 kts 30°
2026-05-04 18:25 50.63195 -1.34826 21360 ft 379 kts 30°
2026-05-04 18:25 50.65508 -1.32841 20889 ft 376 kts 30°
2026-05-04 18:26 50.67798 -1.30871 20413 ft 373 kts 30°
2026-05-04 18:26 50.70065 -1.28919 19944 ft 370 kts 30°
2026-05-04 18:26 50.72319 -1.26972 19464 ft 368 kts 30°
2026-05-04 18:26 50.74502 -1.25084 19005 ft 365 kts 30°
2026-05-04 18:27 50.76685 -1.23172 18534 ft 363 kts 31°
2026-05-04 18:27 50.78839 -1.21110 18026 ft 361 kts 33°
2026-05-04 18:27 50.80929 -1.18965 17537 ft 357 kts 34°
2026-05-04 18:27 50.82984 -1.16783 17074 ft 353 kts 34°
2026-05-04 18:28 50.85015 -1.14622 16608 ft 350 kts 34°
2026-05-04 18:28 50.87027 -1.12497 16141 ft 347 kts 34°
2026-05-04 18:28 50.89042 -1.10386 15676 ft 345 kts 34°
2026-05-04 18:28 50.91044 -1.08302 15230 ft 343 kts 34°
2026-05-04 18:29 50.93037 -1.06235 14776 ft 342 kts 33°
2026-05-04 18:29 50.95023 -1.04182 14306 ft 341 kts 33°
2026-05-04 18:29 50.97006 -1.02128 13853 ft 340 kts 33°
2026-05-04 18:29 50.98977 -1.00084 13359 ft 338 kts 33°
2026-05-04 18:30 51.02345 -0.95305 12154 ft 322 kts 49°
2026-05-04 18:30 51.03830 -0.92652 11436 ft 320 kts 49°
2026-05-04 18:30 51.05299 -0.90028 10796 ft 316 kts 49°
2026-05-04 18:31 51.06752 -0.87425 10100 ft 313 kts 49°
2026-05-04 18:31 51.08176 -0.84877 9748 ft 299 kts 49°
2026-05-04 18:31 51.09533 -0.82451 9263 ft 290 kts 49°
2026-05-04 18:31 51.10866 -0.80071 8716 ft 288 kts 49°
2026-05-04 18:32 51.12191 -0.77705 8433 ft 285 kts 49°
2026-05-04 18:32 51.13504 -0.75353 8129 ft 283 kts 49°
2026-05-04 18:32 51.14801 -0.73027 8011 ft 281 kts 49°
2026-05-04 18:32 51.16106 -0.70686 8026 ft 283 kts 49°
2026-05-04 18:33 51.17396 -0.68372 8028 ft 283 kts 49°
2026-05-04 18:33 51.18704 -0.66024 8028 ft 284 kts 49°
2026-05-04 18:33 51.20014 -0.63674 8029 ft 284 kts 49°
2026-05-04 18:33 51.20814 -0.62299 8026 ft 284 kts 43°
2026-05-04 18:34 51.22491 -0.60698 7868 ft 282 kts 17°
2026-05-04 18:34 51.24412 -0.60460 7540 ft 279 kts 349°
2026-05-04 18:34 51.26153 -0.61656 7351 ft 270 kts 322°
2026-05-04 18:34 51.27561 -0.63580 7226 ft 261 kts 316°
2026-05-04 18:35 51.28867 -0.65518 7080 ft 249 kts 316°
2026-05-04 18:35 51.30110 -0.67386 6768 ft 244 kts 316°
2026-05-04 18:35 51.31336 -0.69240 6535 ft 241 kts 316°
2026-05-04 18:35 51.32549 -0.71085 6262 ft 240 kts 316°
2026-05-04 18:36 51.33738 -0.72902 5981 ft 239 kts 316°
2026-05-04 18:36 51.34932 -0.74733 5689 ft 238 kts 316°
2026-05-04 18:36 51.36121 -0.76563 5403 ft 236 kts 316°
2026-05-04 18:36 51.37327 -0.78334 5107 ft 235 kts 326°
2026-05-04 18:37 51.38842 -0.79201 4822 ft 232 kts 355°
2026-05-04 18:37 51.40455 -0.79294 4502 ft 232 kts
2026-05-04 18:37 51.42066 -0.79281 4205 ft 231 kts
2026-05-04 18:37 51.43650 -0.79262 4033 ft 224 kts
2026-05-04 18:38 51.45145 -0.78892 3895 ft 214 kts 26°
2026-05-04 18:38 51.46337 -0.77519 3635 ft 212 kts 46°
2026-05-04 18:38 51.47174 -0.75621 3411 ft 208 kts 64°
2026-05-04 18:38 51.47589 -0.73417 3170 ft 206 kts 82°
2026-05-04 18:39 51.47629 -0.71155 2931 ft 198 kts 88°
2026-05-04 18:39 51.47643 -0.69029 2663 ft 188 kts 87°
2026-05-04 18:39 51.47657 -0.66944 2405 ft 182 kts 87°
2026-05-04 18:39 51.47668 -0.64958 2166 ft 178 kts 87°
2026-05-04 18:40 51.47678 -0.63057 1931 ft 163 kts 87°
2026-05-04 18:40 51.47687 -0.61330 1716 ft 147 kts 86°
2026-05-04 18:40 51.47695 -0.59739 1516 ft 139 kts 86°
2026-05-04 18:40 51.47703 -0.58204 1336 ft 136 kts 86°
2026-05-04 18:41 51.47710 -0.56673 1145 ft 138 kts 86°
2026-05-04 18:41 51.47718 -0.55143 978 ft 136 kts 87°
2026-05-04 18:41 51.47723 -0.53625 753 ft 136 kts 88°
2026-05-04 18:41 51.47731 -0.52110 563 ft 135 kts 88°
2026-05-04 18:42 51.47728 -0.50618 371 ft 133 kts 86°
2026-05-04 18:42 51.47745 -0.49133 231 ft 134 kts 88°
2026-05-04 18:42 51.47750 -0.47639 91 ft 130 kts 89°
2026-05-04 18:42 51.47757 -0.46501 91 ft 62 kts 89°
2026-05-04 18:43 51.47750 -0.46237 88 ft 6 kts 113°
2026-05-04 18:43 51.47707 -0.46155 87 ft 14 kts 141°
2026-05-04 18:43 51.47624 -0.46059 90 ft 8 kts 150°
2026-05-04 18:43 51.47598 -0.46059 87 ft 5 kts 200°
2026-05-04 18:44 51.47561 -0.46081 90 ft 7 kts 197°
2026-05-04 18:44 51.47529 -0.46106 89 ft 8 kts 224°
2026-05-04 18:44 51.47516 -0.46222 87 ft 8 kts 269°
2026-05-04 18:44 51.47515 -0.46284 87 ft 4 kts 270°
2026-05-04 18:45 51.47516 -0.46347 87 ft 7 kts 271°
2026-05-04 18:45 51.47516 -0.46438 87 ft 9 kts 270°
2026-05-04 18:45 51.47517 -0.46498 87 ft 5 kts 271°
2026-05-04 18:45 51.47502 -0.46536 89 ft 4 kts 190°
2026-05-04 18:46 51.47470 -0.46529 90 ft 4 kts 165°
2026-05-04 18:46 51.47447 -0.46520 88 ft 2 kts 165°
2026-05-04 18:46 51.47431 -0.46512 87 ft 3 kts 165°
2026-05-04 18:46 51.47423 -0.46509 90 ft 0 kts 165°